This is the latest recevied weather packets stored in our database for station/object KA1GJU-3. If no packets are shown the sender has not sent any weather packets the latest 1 day(s).
| Time | Temp. | Humidity | Pressure | Rain* | Wind** | Luminosity | Snow |
|---|---|---|---|---|---|---|---|
| 1778008457 | 27.22° C | 100% | 0 hPa | 0 mm | 2.68 m/s, 206° | - | - |
| 1778007857 | 28.33° C | 100% | 0 hPa | 0 mm | 3.13 m/s, 160° | - | - |
| 1778007257 | 28.89° C | 100% | 0 hPa | 0 mm | 5.36 m/s, 236° | - | - |
| 1778006657 | 29.44° C | 100% | 0 hPa | 0 mm | 1.79 m/s, 250° | - | - |
| 1778006057 | 30° C | 100% | 0 hPa | 0 mm | 3.58 m/s, 251° | - | - |
| 1778005457 | 28.89° C | 100% | 0 hPa | 0 mm | 3.13 m/s, 257° | - | - |
| 1778004857 | 28.89° C | 100% | 0 hPa | 0 mm | 4.47 m/s, 230° | - | - |
| 1778004257 | 28.33° C | 100% | 0 hPa | 0 mm | 3.13 m/s, 240° | - | - |
| 1778003657 | 28.33° C | 100% | 0 hPa | 0 mm | 5.36 m/s, 201° | - | - |
| 1778003057 | 28.33° C | 100% | 0 hPa | 0 mm | 3.13 m/s, 253° | - | - |
| 1778002457 | 28.89° C | 100% | 0 hPa | 0 mm | 4.02 m/s, 230° | - | - |
| 1778001857 | 27.78° C | 100% | 0 hPa | 0 mm | 5.81 m/s, 189° | - | - |
| 1778001257 | 28.33° C | 100% | 0 hPa | 0 mm | 1.79 m/s, 255° | - | - |
| 1778000657 | 27.78° C | 100% | 0 hPa | 0 mm | 2.68 m/s, 168° | - | - |
| 1778000057 | 27.22° C | 100% | 0 hPa | 0 mm | 1.34 m/s, 244° | - | - |
| 1777999457 | 27.22° C | 100% | 0 hPa | 0 mm | 1.34 m/s, 282° | - | - |
| 1777998857 | 27.22° C | 100% | 0 hPa | 0 mm | 2.68 m/s, 230° | - | - |
| 1777998257 | 26.11° C | 100% | 0 hPa | 0 mm | 4.02 m/s, 300° | - | - |
| 1777997657 | 26.67° C | 100% | 0 hPa | 0 mm | 2.68 m/s, 244° | - | - |
| 1777997057 | 25.56° C | 100% | 0 hPa | 0 mm | 0.45 m/s, 244° | - | - |
| 1777996457 | 25.56° C | 100% | 0 hPa | 0 mm | 2.68 m/s, 255° | - | - |
| 1777995857 | 25° C | 100% | 0 hPa | 0 mm | 3.13 m/s, 284° | - | - |
| 1777995257 | 25° C | 100% | 0 hPa | 0 mm | 1.34 m/s, 229° | - | - |
| 1777994657 | 23.89° C | 100% | 0 hPa | 0 mm | 1.79 m/s, 199° | - | - |
| 1777994057 | 23.89° C | 100% | 0 hPa | 0 mm | 1.34 m/s, 247° | - | - |
* Rain latest hour (hover to see other rain measurements)
** Current wind speed in m/s (hover to see current wind gust speed)